GFSWCAN_2pvu_pres_057.txt.gz
Presure
277 279 279 273 269 274 276 283 277 269 270 269 271 268 266 267 269 272 278 278 275 277 262 275 276 277 103 176 188 279 290 293 295 228 305 316 321 307 330 299 255 262 264 266 266 252 222 211 206 195 215 207 166 206
279 271 305 318 323 324 321 311 289 256 272 279 260 260 264 271 269 274 275 273 272 272 270 271 270 266 254 271 267 282 291 268 133 296 292 304 302 142 309 309 319 310 312 259 272 269 262 255 245 210 210 220 217 145
359 362 374 388 396 409 423 403 445 448 348 308 291 278 276 268 263 263 259 266 268 130 276 268 267 263 169 259 263 266 271 272 278 288 284 280 279 284 287 298 300 306 318 317 325 264 257 254 255 154 241 232 215 218
308 367 384 415 413 407 404 385 384 392 410 422 390 328 293 281 271 271 129 115 175 262 268 270 274 267 262 218 173 261 261 265 270 278 224 272 275 284 294 295 288 293 298 316 332 306 351 251 227 236 218 259 259 219
354 353 383 397 387 391 398 402 394 385 386 400 431 393 375 349 296 286 119 176 269 271 280 275 281 266 198 131 205 172 264 263 165 129 146 146 265 274 278 289 289 296 297 292 310 303 332 301 273 251 231 219 222 253
343 348 377 381 389 401 390 434 434 393 381 379 380 388 387 366 363 368 319 300 283 278 271 271 271 134 134 132 239 268 148 139 127 127 289 293 292 279 277 285 295 294 301 293 293 163 326 302 250 259 247 253 253 250
349 340 351 368 384 409 381 404 402 401 402 372 373 398 405 406 389 362 348 359 375 321 295 287 290 292 290 267 288 174 144 147 140 317 229 301 305 268 286 286 294 290 292 290 275 319 331 308 260 266 259 258 251 265
353 345 327 365 372 413 402 384 380 382 383 373 371 380 419 366 352 89 366 336 344 352 357 95 377 377 371 322 224 378 374 245 232 363 369 355 350 365 368 335 375 288 245 279 227 327 282 315 201 260 265 257 255 266
345 342 341 347 359 387 411 387 383 383 380 386 388 387 366 365 362 361 358 347 332 355 346 349 333 339 334 303 350 341 329 323 332 347 350 184 347 337 346 349 161 278 278 271 279 319 291 319 248 273 272 268 270 268
309 329 335 338 369 374 387 382 357 360 373 385 381 386 382 367 346 339 342 349 339 125 330 340 328 326 312 314 290 323 102 213 339 322 330 333 329 323 331 336 341 339 274 269 268 338 291 280 335 290 280 284 282 278
296 298 313 324 337 342 334 344 352 358 361 363 358 338 335 336 335 339 331 339 331 334 324 331 319 337 332 314 315 319 256 195 314 317 326 332 329 300 198 331 332 318 208 278 220 177 254 279 321 304 301 294 293 291
311 295 296 299 308 313 319 329 338 330 330 351 323 334 333 323 327 333 352 392 341 340 328 334 324 325 307 317 319 311 123 239 318 322 330 326 335 328 323 330 318 288 212 288 287 283 271 311 273 316 283 273 280 256
294 307 290 294 293 294 296 299 307 310 312 319 325 330 332 336 334 337 334 332 332 325 322 326 332 335 330 330 327 324 323 331 332 329 321 316 337 308 303 297 294 289 290 277 287 269 259 274 286 331 299 283 296 292
285 295 303 309 299 294 295 293 294 296 302 303 301 307 309 311 312 312 311 307 308 305 303 298 298 294 293 288 289 287 286 286 284 279 282 288 280 280 271 274 259 269 265 271 346 339 330 311 296 286 203 328 298 272
304 287 290 300 299 298 297 297 302 297 295 294 297 300 299 300 295 288 286 289 283 280 277 274 271 273 276 274 265 273 275 274 273 269 265 269 272 275 269 268 268 284 274 278 284 280 302 335 330 325 272 303 309 318
322 324 300 290 289 296 296 306 313 314 313 306 300 297 291 274 276 278 259 273 265 275 275 272 279 283 286 279 290 285 298 304 305 308 314 312 301 318 314 310 308 290 284 286 286 298 267 287 293 290 262 244 294 287
337 340 346 307 295 291 305 317 326 342 360 281 273 271 278 288 294 289 283 285 285 284 278 277 274 283 278 279 281 280 285 305 291 302 278 299 293 278 252 310 316 313 301 299 300 308 305 303 299 294 290 287 287 286
340 367 346 319 321 325 325 330 326 317 315 312 294 280 285 271 275 275 285 280 284 276 273 276 281 267 279 280 274 274 279 280 281 278 282 284 281 282 266 282 278 275 274 275 288 279 274 275 281 290 291 287 221 217
293 306 322 284 307 307 297 290 289 285 287 283 284 286 280 276 272 268 264 257 261 259 252 251 247 250 249 250 256 253 256 257 256 256 256 252 253 259 264 265 265 274 274 274 277 276 279 277 277 277 279 284 284 284
270 271 271 271 278 277 275 272 269 265 261 261 276 266 262 251 247 249 248 253 245 245 241 243 243 244 245 246 246 248 248 240 245 245 244 246 248 242 248 247 248 253 258 262 262 262 268 272 279 285 283 277 282 284
259 216 254 252 245 246 255 251 253 248 252 252 247 250 247 250 245 244 233 237 246 232 232 233 235 237 239 238 239 243 243 246 247 244 247 243 244 248 247 247 245 248 256 258 257 260 265 267 270 275 279 279 284 287
244 242 240 244 239 240 243 245 237 229 241 233 243 243 241 242 242 232 237 237 235 245 243 246 247 247 247 244 244 244 248 248 247 246 242 250 250 252 255 258 259 261 261 263 263 266 269 269 271 273 273 275 276 277
250 240 232 231 239 229 239 245 243 237 235 234 240 239 237 240 244 236 242 242 242 236 245 241 238 239 244 242 245 242 242 246 248 249 250 255 259 260 261 278 283 301 317 324 329 318 321 324 326 328 330 331 300 300
232 229 234 241 241 245 241 245 245 243 243 242 240 239 234 239 234 241 242 241 240 244 251 243 242 241 241 241 249 251 254 243 237 241 271 282 287 291 296 320 338 361 421 447 469 495 504 500 500 494 494 490 486 480
230 226 235 244 244 242 240 247 242 232 237 240 243 242 240 244 245 245 241 236 248 239 239 240 238 237 237 236 248 256 239 248 263 285 282 300 308 357 466 465 470 470 466 460 456 461 468 469 468 463 457 451 444 436
236 243 243 243 244 241 243 246 244 242 237 242 244 244 244 244 248 246 242 244 241 228 236 236 239 247 240 236 247 268 286 289 295 320 367 448 465 465 461 464 458 444 425 414 414 416 414 415 412 411 407 404 399 394
232 249 245 238 238 237 236 238 242 244 247 247 248 251 250 244 239 242 241 239 244 247 250 249 241 257 262 264 283 291 299 322 377 465 455 445 437 428 422 414 423 407 401 393 384 378 376 378 381 382 379 378 374 373
255 251 238 233 236 238 229 230 230 239 240 247 245 244 245 245 243 244 239 248 252 249 248 255 259 271 279 286 303 305 364 473 460 446 432 475 451 420 406 398 395 380 376 379 377 396 389 383 377 373 369 367 363 357
245 235 235 233 233 234 237 239 236 241 244 244 251 243 239 239 247 251 246 245 256 254 254 267 271 284 284 310 324 404 462 450 452 523 513 501 484 465 439 414 397 390 415 411 394 380 369 364 361 362 356 350 346 339
246 238 242 239 234 234 235 241 242 244 244 245 245 247 252 240 245 251 257 256 257 267 271 280 283 291 311 333 461 455 437 429 426 431 510 496 475 452 448 434 414 397 381 370 360 357 360 361 354 347 339 331 327 320
255 266 241 235 233 241 245 244 243 243 242 247 250 250 252 248 251 255 258 266 270 277 285 282 296 310 340 457 453 435 416 413 407 390 387 380 374 391 383 377 364 358 358 359 357 359 355 346 338 330 322 319 319 322
247 242 242 241 243 243 242 243 246 251 250 246 254 253 258 258 257 266 270 275 282 287 290 302 314 345 432 451 440 424 406 391 405 387 380 371 371 365 359 356 361 355 352 351 349 348 342 335 331 327 325 322 322 325
241 233 235 237 237 236 241 252 255 253 252 255 260 258 260 270 268 264 266 288 292 298 303 317 369 426 448 439 426 411 399 386 374 387 378 369 366 361 355 355 356 349 345 344 341 342 341 338 334 333 331 330 332 334

GFSWCAN_2pvu_pres_060.txt.gz
Presure
284 281 282 282 284 288 289 280 270 269 269 269 273 274 281 284 284 282 303 320 299 321 306 329 290 288 295 308 223 255 275 237 269 261 259 258 265 264 258 250 183 149 238 238 234 233 222 100 210 190 218 216 195 144
275 277 277 278 281 280 279 279 280 279 275 271 271 269 267 269 281 282 276 283 305 310 310 318 312 293 289 296 90 311 314 205 323 142 153 217 253 254 270 272 266 264 268 269 266 253 232 233 223 226 226 217 218 218
326 323 322 324 370 387 377 350 306 266 255 271 276 275 264 269 270 277 273 277 196 283 291 299 296 297 249 295 275 296 306 300 306 301 308 288 121 295 312 273 255 268 272 274 276 219 274 272 275 252 243 237 234 215
296 294 351 360 392 385 409 415 435 442 356 294 269 255 270 274 267 276 277 264 267 259 266 273 277 281 277 276 263 286 284 291 290 292 291 246 294 299 269 305 307 312 317 319 291 263 263 276 278 272 268 267 261 261
289 366 352 352 373 384 386 388 400 413 414 401 367 295 275 253 266 257 260 266 271 266 259 259 263 264 267 268 169 271 273 281 283 285 230 187 288 289 293 297 297 294 295 296 301 312 315 314 318 297 255 258 266 265
370 352 346 363 380 418 413 395 389 397 387 381 389 457 327 296 272 253 251 97 104 264 161 271 260 256 257 261 263 113 265 271 274 277 131 151 271 277 281 283 287 287 286 289 286 292 300 306 303 311 329 313 248 170
349 343 359 374 415 389 389 404 411 401 380 369 372 390 412 378 313 288 271 259 261 257 277 262 252 255 233 266 264 255 186 263 266 271 241 169 137 143 244 150 275 278 279 282 286 290 296 302 304 292 298 313 301 309
355 360 370 418 379 363 389 399 413 392 372 367 374 385 388 384 364 319 299 285 278 275 277 263 250 265 267 270 131 265 225 262 257 262 172 128 203 142 218 278 277 277 285 268 272 278 282 287 311 284 258 306 321 265
369 383 384 397 368 352 380 372 386 381 380 362 362 366 366 358 357 355 352 313 301 287 276 276 273 281 282 272 260 261 275 273 276 157 123 126 245 291 290 299 301 311 338 283 325 272 280 289 166 310 280 294 300 179
334 330 368 372 397 359 355 381 362 356 362 369 378 384 369 361 358 351 348 348 348 330 302 291 286 288 290 289 288 195 283 284 286 146 285 289 291 304 309 324 362 367 362 364 370 379 371 289 283 293 277 304 130 290
324 330 312 352 357 372 376 363 377 383 380 359 354 353 353 353 361 373 368 355 335 336 342 351 364 357 358 309 208 126 245 163 317 345 352 364 363 204 361 344 339 344 336 292 326 343 300 296 275 263 274 286 255 276
314 316 317 312 329 312 334 355 367 367 361 353 364 355 346 340 342 343 341 340 338 337 336 348 345 346 232 333 333 347 312 206 195 340 341 338 334 335 332 303 342 330 324 329 334 338 285 158 262 194 269 341 297 282
305 305 306 310 317 320 333 323 325 321 329 352 340 339 334 339 345 371 347 354 356 354 342 334 324 317 328 333 326 333 332 340 325 326 326 323 328 329 328 341 330 321 317 336 336 336 304 304 284 264 260 261 281 295
298 300 301 301 303 307 318 320 314 314 313 312 228 317 324 338 354 338 325 322 327 336 338 342 346 351 353 334 335 335 309 321 304 307 302 302 303 314 327 337 334 319 319 315 302 280 265 293 287 295 277 264 264 260
292 303 296 303 308 304 307 308 312 317 318 320 316 320 321 327 323 321 322 318 314 306 297 294 293 291 287 286 285 283 285 283 285 280 282 279 284 285 284 282 281 280 279 274 270 271 272 279 281 286 293 291 279 273
289 294 301 313 294 302 306 305 304 295 291 288 288 285 279 279 277 277 274 270 269 270 274 277 277 281 287 290 284 278 297 287 282 280 285 283 282 277 277 276 272 268 264 267 266 281 280 282 281 274 292 291 297 301
288 293 299 308 316 288 281 280 273 273 268 265 270 271 280 278 286 291 284 287 299 298 283 280 280 279 283 284 284 284 281 284 293 289 278 289 308 321 311 190 307 314 321 325 302 288 295 289 294 311 306 303 300 294
299 307 312 320 336 298 296 276 267 270 287 288 289 294 293 290 283 284 285 281 282 283 280 274 269 268 267 266 266 258 261 264 263 263 266 267 269 271 271 272 272 269 279 280 277 279 278 285 286 289 286 282 283 282
319 327 338 333 281 273 290 307 280 287 260 288 277 282 276 271 269 267 264 263 259 252 255 258 255 253 249 248 243 243 246 247 250 256 252 251 254 256 257 258 257 258 258 258 259 259 261 267 269 272 271 272 275 277
307 297 296 292 286 290 293 283 277 276 267 267 267 263 260 254 256 255 255 254 249 252 247 247 247 248 246 247 243 245 242 246 247 243 244 240 238 239 241 245 244 246 243 246 256 259 258 261 254 264 265 264 267 270
271 269 274 276 273 268 266 259 257 254 254 255 256 256 254 253 251 249 246 247 244 243 244 245 226 233 237 237 238 242 246 249 247 247 248 251 251 251 251 256 257 258 258 260 260 262 264 265 267 267 270 272 272 273
251 251 255 256 257 255 252 242 229 242 244 239 240 239 235 231 241 239 238 237 236 247 244 246 247 244 242 237 241 240 244 247 249 248 248 251 251 253 253 254 249 255 260 267 271 283 286 289 293 299 301 303 310 313
233 229 222 234 241 244 244 246 247 244 245 242 242 240 242 242 231 235 241 242 239 233 243 247 245 239 239 241 245 246 245 248 243 248 240 244 257 259 270 279 290 295 299 307 309 310 318 329 337 349 357 413 432 506
243 234 232 234 246 246 246 243 242 238 241 240 240 234 232 240 241 243 242 242 239 238 246 240 239 240 240 239 238 246 250 237 234 249 251 261 272 280 311 338 355 370 441 439 453 452 472 470 466 463 463 469 471 468
240 239 246 244 244 248 246 242 231 235 237 241 242 244 245 245 245 246 248 245 242 244 241 238 239 239 237 247 242 238 238 238 262 252 267 299 367 408 469 463 455 451 450 452 455 456 446 428 418 416 416 415 415 412
232 244 243 243 235 233 240 239 240 240 246 247 246 248 252 247 244 244 243 243 244 243 241 232 235 242 245 242 239 237 251 253 264 299 394 477 466 453 443 438 428 417 414 412 424 414 403 401 392 381 378 379 383 383
232 242 245 238 235 237 235 234 231 229 235 238 243 239 238 247 245 241 241 237 234 239 243 239 235 226 246 246 248 257 274 297 370 477 469 448 442 490 506 491 474 444 414 397 397 385 373 374 373 378 385 382 377 374
237 246 249 243 234 236 239 232 234 236 232 235 234 234 236 240 240 242 239 242 249 241 240 245 244 242 254 263 286 317 339 377 475 458 440 429 413 413 507 494 476 454 423 402 388 384 383 401 393 381 374 366 363 359
240 249 252 246 233 233 233 232 232 232 235 237 236 237 238 238 238 242 244 243 244 249 254 252 252 245 271 299 318 349 386 474 456 437 420 410 402 402 394 470 452 430 417 407 420 401 384 370 362 358 358 358 353 347
238 238 243 243 240 237 245 238 227 234 237 240 240 237 237 239 245 247 244 249 253 255 261 270 274 294 309 318 352 400 471 384 441 421 406 398 392 387 386 381 373 368 366 363 360 358 361 359 357 359 354 346 340 333
248 250 249 249 243 256 254 233 237 241 238 236 236 241 244 247 253 251 249 257 258 269 272 285 299 310 329 357 406 464 375 433 429 414 402 391 388 382 379 372 367 357 360 361 352 352 352 348 346 344 344 340 337 336
243 246 250 259 259 247 243 234 236 233 230 243 244 248 253 253 247 258 259 265 273 274 290 305 308 337 363 422 385 356 394 430 420 409 399 386 373 380 370 371 361 363 351 354 356 350 344 342 342 342 341 340 339 338
248 250 255 258 251 244 244 234 241 243 244 250 255 252 256 260 260 264 270 275 287 292 304 305 344 369 424 347 341 399 433 420 365 357 391 378 378 367 368 362 368 354 359 355 348 349 348 346 344 340 337 340 336 338

GFSWCAN_2pvu_pres_063.txt.gz
Presure
281 282 282 282 286 297 306 311 308 306 306 303 296 292 288 291 306 320 336 348 285 292 283 317 283 327 269 265 269 264 265 272 278 265 255 251 246 243 240 250 229 253 248 237 230 230 119 239 245 239 227 155 234 230
278 272 274 278 277 278 281 282 282 302 295 293 291 285 289 282 284 301 321 297 296 108 285 292 308 313 312 264 97 251 224 265 259 261 261 259 252 237 245 249 240 234 233 238 236 218 223 223 225 227 229 229 236 171
322 319 311 307 306 314 344 301 273 278 282 283 271 271 273 281 286 280 287 319 132 285 278 271 283 295 303 305 240 127 270 269 267 263 260 257 260 258 243 250 252 243 242 225 143 231 216 222 212 230 227 222 220 220
304 305 296 297 306 338 366 365 352 323 286 271 279 281 279 285 271 281 278 281 314 304 304 318 258 260 277 99 283 315 286 287 260 269 264 262 266 258 161 207 204 206 255 252 251 248 243 244 176 237 232 230 229 228
302 304 309 349 360 355 353 364 376 399 383 307 277 258 269 275 277 267 268 278 277 299 304 304 205 294 300 274 126 267 289 303 314 335 239 301 254 228 265 271 269 264 260 259 255 254 259 264 267 269 268 260 253 250
312 336 362 363 367 386 406 410 415 433 404 406 322 288 270 262 274 273 272 268 273 279 283 303 301 300 300 297 291 287 313 298 279 304 305 304 302 307 307 308 308 305 307 304 301 305 306 264 262 266 269 267 272 279
309 342 401 409 372 375 388 389 389 384 380 401 425 326 291 279 268 268 271 260 114 153 275 276 275 281 289 289 293 112 298 226 260 260 273 251 287 233 134 261 285 288 290 289 292 296 299 302 302 305 307 309 313 319
383 388 403 362 368 384 408 406 396 377 383 383 394 400 352 293 97 272 147 114 124 188 202 265 263 265 265 268 267 186 274 211 276 276 277 276 129 219 280 275 275 276 150 266 279 283 286 289 292 294 296 299 299 302
376 382 378 361 382 383 398 396 387 373 363 356 358 371 384 358 295 284 278 236 245 226 251 255 265 261 265 246 235 98 268 214 125 262 163 269 277 275 152 268 265 265 204 270 272 274 273 277 280 284 285 294 294 300
322 351 378 383 365 364 371 364 363 356 355 362 368 370 381 379 385 305 287 278 277 272 238 261 253 251 213 249 252 251 255 258 258 266 263 276 264 271 256 156 154 274 278 287 298 303 282 293 282 273 285 278 279 283
323 333 369 378 367 353 338 348 355 359 360 363 367 368 361 357 361 373 312 302 291 283 281 276 261 248 237 248 177 216 258 247 260 246 257 263 229 184 274 286 297 308 308 315 332 352 363 372 211 357 355 313 307 276
321 316 308 336 385 367 361 360 357 353 348 342 340 350 347 346 352 354 351 345 311 300 299 288 284 279 278 277 258 277 252 276 192 281 226 291 206 297 308 318 353 353 348 367 360 346 348 333 339 342 344 350 256 247
316 320 312 331 325 362 340 349 349 359 356 351 351 353 355 360 352 350 343 350 356 168 324 302 298 298 296 295 294 298 177 220 341 349 151 344 352 353 346 340 336 173 335 207 188 344 318 329 202 323 326 337 140 290
319 315 306 307 307 311 321 324 331 335 335 333 333 355 350 344 354 353 346 349 345 338 344 356 364 359 355 354 350 342 337 348 355 332 324 323 321 312 309 314 322 324 329 332 144 322 327 328 319 304 284 275 247 276
305 308 311 308 309 307 307 312 315 320 326 334 338 337 346 335 347 335 340 343 347 330 334 332 330 332 334 334 331 320 316 314 311 305 300 299 195 296 297 296 295 296 291 291 297 292 290 288 285 280 281 280 283 281
306 309 309 311 317 317 317 315 314 317 317 319 320 321 326 328 333 336 339 342 314 310 304 292 287 288 287 290 295 277 275 277 275 289 295 296 296 294 291 291 297 294 289 295 293 283 284 277 275 276 281 282 276 273
309 313 308 297 295 291 289 289 287 287 283 280 277 281 281 282 279 279 278 280 284 282 286 285 301 292 291 291 288 276 277 270 266 267 265 261 270 268 269 273 277 278 282 283 282 281 290 306 310 303 300 295 290 294
328 282 278 279 280 277 267 267 280 279 290 290 300 307 306 301 293 292 288 281 276 271 267 267 266 265 263 259 258 261 256 256 257 258 260 260 259 259 265 269 268 270 264 265 263 265 270 265 265 269 272 271 270 275
278 275 269 267 294 299 300 298 292 287 285 283 280 276 272 268 268 268 267 264 260 261 259 257 254 251 250 251 250 246 246 246 249 243 253 255 255 258 258 256 259 259 259 261 264 266 257 256 251 252 253 250 256 263
280 271 288 288 290 282 282 277 272 271 266 266 267 261 256 256 256 255 251 249 247 245 243 248 252 254 251 241 246 241 240 249 248 250 250 250 252 253 252 253 247 250 256 260 262 263 264 265 266 262 261 261 262 264
314 298 281 278 272 262 267 263 257 252 248 254 255 254 252 247 241 241 233 246 244 243 242 243 245 241 246 247 248 248 248 247 246 245 247 247 250 256 261 260 259 265 261 264 271 273 277 281 285 287 288 290 291 292
276 268 263 261 257 249 248 251 253 251 255 248 246 245 243 241 237 240 241 240 243 236 234 245 247 244 243 241 241 241 247 248 250 251 252 253 252 254 262 261 256 274 278 288 293 298 304 311 319 319 313 312 310 309
255 241 253 250 251 248 248 249 246 248 247 244 244 243 234 224 238 241 240 236 241 236 237 245 245 243 243 243 245 245 248 250 250 247 255 250 261 263 270 280 292 295 314 349 372 415 414 412 411 410 410 410 411 457
248 247 249 242 243 246 243 241 241 239 240 238 238 241 242 242 243 245 241 245 247 242 244 247 247 247 242 244 248 248 244 248 252 256 252 262 270 282 353 463 481 474 466 458 451 445 442 439 440 443 449 446 436 426
237 234 247 241 243 232 236 239 237 239 240 242 244 245 247 244 242 242 242 243 240 245 239 241 240 250 237 245 247 240 240 250 248 258 271 288 375 487 473 458 447 438 432 438 471 446 423 411 407 419 416 404 398 392
247 241 241 241 237 238 240 239 241 245 241 238 241 240 235 237 242 243 242 243 242 237 242 241 237 241 237 241 238 237 255 252 269 292 368 431 458 399 447 435 417 410 476 494 478 459 434 404 393 394 390 383 372 366
247 248 240 238 235 236 236 231 228 228 231 232 234 233 234 237 238 239 237 237 237 241 241 243 241 238 245 248 239 257 265 314 355 379 416 373 425 440 424 409 411 402 449 476 460 442 420 402 389 378 373 372 377 380
237 242 242 241 240 232 237 232 231 231 232 232 232 231 236 238 240 237 229 236 238 237 245 249 247 242 256 246 267 281 340 354 381 367 349 418 437 422 409 399 391 393 430 444 433 419 403 392 384 398 393 382 370 362
241 245 253 253 249 232 231 234 233 233 234 230 231 232 242 235 231 226 238 239 241 246 244 246 255 260 265 273 298 339 353 381 360 338 356 438 431 412 400 392 384 382 381 377 370 367 364 360 354 354 354 352 354 353
250 240 238 233 239 239 237 239 250 255 254 247 236 237 227 226 235 241 240 244 247 251 255 263 266 266 279 311 316 357 382 363 341 337 444 431 422 408 395 383 379 372 376 368 366 357 363 355 351 351 350 345 343 342
241 240 242 245 245 247 248 249 261 258 251 246 233 233 243 244 245 247 248 252 253 261 266 264 272 290 337 311 358 382 362 346 336 450 439 427 416 405 391 378 368 376 361 370 359 361 357 352 353 351 349 345 342 338
242 243 244 242 247 250 253 254 253 252 250 249 250 245 246 245 248 252 255 259 266 262 272 279 322 320 306 361 383 360 345 335 455 446 321 424 414 400 384 374 375 367 366 361 360 364 351 354 356 351 346 345 344 344
243 246 247 247 245 247 255 252 252 247 238 244 245 248 251 255 257 262 265 267 269 274 293 333 315 306 365 383 353 345 333 475 467 451 435 419 403 387 380 354 348 343 343 353 360 354 354 360 357 351 348 348 349 348

GFSWCAN_2pvu_pres_069.txt.gz
Presure
295 286 283 281 274 269 280 284 292 338 321 348 339 323 318 309 312 315 318 322 337 403 339 325 312 343 352 374 353 364 361 367 374 343 312 265 263 247 242 236 219 228 224 218 215 216 210 215 203 202 210 217 203 217
290 283 277 275 267 279 318 279 279 290 343 323 313 310 317 317 304 307 327 328 326 320 320 334 342 361 355 362 348 349 346 354 348 280 305 265 261 253 243 224 233 223 223 225 216 213 218 219 214 209 202 199 204 225
283 275 279 265 276 319 310 305 268 282 289 339 337 327 311 301 298 297 323 334 311 321 334 333 335 344 352 346 343 338 343 344 332 269 295 266 255 254 247 236 232 228 218 222 226 219 219 209 209 212 212 216 120 209
277 282 263 294 307 296 295 296 296 307 282 287 316 309 302 289 294 303 314 329 327 319 324 328 326 227 333 331 250 90 335 327 322 266 284 270 254 252 249 248 235 228 242 224 230 228 223 216 217 218 220 220 222 213
276 256 314 304 322 316 308 301 301 292 302 280 288 305 293 287 280 294 307 319 317 315 320 327 319 316 314 161 318 330 322 318 255 264 267 283 247 251 249 246 243 242 231 232 232 232 229 224 230 220 223 229 140 139
310 302 307 328 334 357 357 379 311 293 295 300 277 295 294 282 281 286 301 86 321 292 295 316 309 313 327 316 312 335 321 318 313 273 257 280 276 249 249 248 241 245 245 135 231 230 241 237 226 236 243 235 236 230
303 327 333 390 397 387 401 398 393 365 294 297 305 275 297 276 272 273 282 292 307 278 233 279 282 297 267 310 317 330 336 308 304 285 256 255 276 265 146 251 245 243 217 245 245 219 242 242 237 236 235 234 244 243
328 368 371 376 385 395 376 374 409 375 358 290 294 300 293 276 267 272 273 277 299 306 273 266 264 273 282 295 301 309 293 323 300 290 262 257 255 263 269 262 255 252 251 187 248 247 245 245 244 244 246 247 250 254
389 359 357 385 393 423 402 366 360 387 357 353 317 302 268 272 271 270 277 278 289 297 300 306 300 260 271 218 215 254 306 312 302 290 271 258 261 255 247 250 256 263 270 268 269 268 266 266 265 264 263 265 265 266
349 348 340 363 379 389 389 383 377 362 403 357 350 303 310 286 264 265 264 268 225 276 295 296 300 305 289 118 270 271 162 285 285 305 112 257 254 249 143 256 258 260 258 259 260 263 263 265 264 264 264 265 267 270
352 348 347 357 338 347 351 361 365 357 372 377 355 353 308 278 263 264 269 187 234 171 278 285 289 298 301 301 290 303 252 316 288 262 180 287 302 295 298 247 302 306 306 306 307 306 289 302 298 298 302 303 303 306
353 340 345 339 333 341 339 350 341 346 347 369 376 371 304 298 273 278 269 280 210 263 265 269 274 279 282 286 286 291 295 293 193 292 293 291 286 237 292 264 287 286 285 284 284 259 286 287 289 290 292 294 297 299
368 335 323 335 350 340 326 342 350 343 343 335 350 353 363 298 290 267 273 258 257 262 264 265 263 265 267 268 272 272 263 268 268 267 267 265 267 134 271 270 270 185 151 231 277 279 281 150 174 276 158 269 265 206
324 336 351 335 337 353 343 334 335 339 331 334 340 357 353 360 297 286 261 257 258 255 256 253 257 261 254 245 253 254 261 257 255 255 258 261 262 223 263 260 276 128 134 156 371 367 354 341 347 348 334 330 163 257
318 319 327 331 323 330 325 325 323 337 341 343 345 345 358 375 326 295 288 269 261 253 254 255 253 257 257 259 259 261 263 268 269 265 269 271 276 288 332 225 365 344 321 307 302 300 298 304 303 299 128 297 297 304
311 316 311 311 311 314 315 323 336 330 324 318 331 335 342 350 362 356 301 294 288 278 265 259 260 260 260 259 257 260 265 269 317 369 388 246 299 300 297 298 296 291 290 289 290 286 282 283 295 292 292 296 298 283
313 319 319 319 320 324 319 321 330 330 321 325 324 328 328 333 341 349 353 357 303 296 299 302 308 313 318 325 382 383 309 297 293 289 280 279 279 278 263 270 267 272 271 264 266 267 265 266 265 266 270 272 271 272
311 311 315 320 322 325 331 329 329 340 332 339 335 329 328 332 338 344 347 358 359 360 368 360 363 305 289 281 278 269 269 266 258 260 259 269 266 267 262 264 262 259 259 260 260 261 262 262 262 259 256 258 258 257
316 313 310 309 311 308 311 314 323 325 324 323 323 302 298 295 293 291 291 290 286 281 277 272 267 263 263 261 256 260 255 254 246 255 257 256 259 260 259 256 259 257 257 257 258 260 261 261 262 263 263 263 265 268
278 279 282 284 287 287 290 292 296 294 291 284 283 280 276 273 269 267 267 264 260 257 258 253 251 251 242 246 246 258 257 256 248 247 249 246 245 250 253 256 257 259 263 263 268 273 276 280 283 286 288 288 288 288
293 291 285 270 264 268 268 260 257 248 261 263 263 261 247 255 247 247 252 249 245 247 253 255 257 253 248 248 248 247 248 250 251 252 255 250 252 257 253 251 263 273 274 276 286 306 313 334 341 354 359 361 362 362
266 265 259 255 257 255 250 249 243 243 245 246 247 248 253 252 252 253 248 246 243 242 245 246 246 247 248 246 246 247 248 247 249 250 248 249 258 259 264 273 274 284 310 314 328 378 395 404 393 378 365 362 365 369
257 251 251 248 245 243 235 251 252 252 246 235 246 250 246 246 246 247 247 245 236 238 238 239 243 243 245 244 243 244 245 250 249 250 254 260 265 266 275 309 347 311 339 396 379 364 355 351 451 442 435 427 421 416
249 243 244 250 252 247 233 239 247 245 242 246 245 247 246 243 244 244 243 242 242 238 240 239 240 242 243 247 248 249 252 252 256 252 262 269 274 325 323 307 382 390 374 358 347 383 448 437 427 417 411 409 409 464
252 237 240 241 244 245 243 242 244 244 244 243 242 240 240 239 238 238 236 236 236 239 236 236 241 241 249 249 241 251 253 253 256 266 278 316 314 309 394 385 365 353 345 356 451 439 426 413 405 398 399 471 461 449
243 237 240 238 239 245 244 245 242 241 241 240 235 235 237 235 233 233 237 245 243 234 233 237 247 249 247 248 249 253 255 261 283 316 311 313 376 390 364 353 345 351 459 448 434 424 412 401 392 387 386 427 423 414
232 236 240 239 246 246 236 233 235 233 233 231 232 232 231 235 235 243 243 244 228 233 243 249 247 246 247 250 253 262 270 316 324 312 316 383 384 356 346 351 435 460 449 437 424 412 401 391 382 377 377 374 373 384
242 242 243 240 247 236 222 230 231 231 232 233 233 238 235 258 256 249 246 240 245 248 244 246 242 250 258 263 269 292 322 330 316 318 385 383 348 352 357 482 471 457 441 427 416 404 393 383 378 375 370 369 364 363
240 235 232 231 238 235 236 237 233 236 236 236 247 253 258 252 248 245 250 245 240 245 241 249 256 263 272 283 302 327 331 321 318 384 381 343 362 360 463 447 440 437 428 419 408 395 386 375 375 364 368 354 356 363
245 249 249 247 243 240 233 235 241 241 239 242 249 248 246 250 255 254 249 251 249 251 256 259 268 275 286 296 324 329 324 319 378 379 340 363 359 453 431 412 400 389 378 369 362 352 343 340 342 346 349 349 349 350
240 244 243 243 238 235 237 241 237 237 244 240 245 246 252 252 252 252 247 256 257 256 262 271 273 285 290 311 322 328 318 375 379 338 365 362 447 425 406 391 384 377 369 360 353 351 352 356 360 362 361 359 357 355
246 237 234 239 241 238 234 234 237 235 242 245 241 250 249 251 249 255 260 256 258 266 272 267 293 286 303 323 334 321 374 378 339 364 361 414 424 404 393 370 368 370 371 370 433 440 438 433 420 412 416 408 389 394
247 244 236 236 237 237 244 243 242 240 241 244 251 252 248 253 256 250 255 262 269 269 271 292 284 300 322 336 323 379 377 341 361 361 361 425 405 382 375 371 370 396 424 414 395 241 418 417 413 408 403 400 398 395

GFSWCAN_2pvu_pres_072.txt.gz
Presure
504 379 335 311 297 290 281 277 275 272 282 331 346 315 320 329 328 329 328 330 328 327 330 327 325 326 328 327 209 321 315 312 373 385 384 382 282 304 258 247 266 234 231 222 226 218 217 214 208 206 210 207 210 207
362 334 317 303 292 280 279 267 268 325 268 315 314 325 311 311 312 317 316 324 326 337 339 346 355 361 412 346 319 296 309 378 367 375 364 354 281 300 259 248 118 249 226 231 220 226 202 216 216 209 212 209 216 203
328 316 307 295 289 277 278 264 273 313 309 275 326 312 310 305 308 316 314 319 323 326 320 293 320 315 315 324 334 332 354 335 362 350 351 336 272 297 258 246 239 253 232 231 224 218 221 210 225 220 211 208 216 210
311 307 298 291 279 277 260 286 301 301 306 280 318 312 316 309 309 305 314 328 315 308 318 318 328 327 340 295 347 356 341 343 350 341 334 327 266 296 261 245 236 249 244 227 226 223 214 221 214 220 221 216 211 211
303 293 285 289 265 257 305 292 288 283 287 301 276 318 305 303 301 309 313 326 283 314 326 331 326 340 343 345 355 342 344 333 335 330 332 324 265 293 265 251 241 240 244 228 240 222 226 220 223 219 211 214 213 220
288 285 269 317 307 301 298 299 294 295 283 291 281 294 297 295 291 296 300 314 339 297 321 330 326 325 330 330 328 102 321 323 327 319 317 316 267 287 265 253 250 237 237 238 230 240 224 236 226 219 223 227 224 220
268 300 303 301 311 355 393 413 435 316 302 288 295 279 288 288 288 283 294 316 317 307 322 328 316 315 314 320 315 312 307 309 309 310 307 313 275 270 278 250 248 250 242 240 236 209 227 157 233 231 223 215 214 209
304 296 311 388 379 374 375 386 396 423 316 296 294 278 289 281 282 282 297 303 311 302 301 314 320 310 301 297 206 301 299 296 298 299 304 300 269 252 232 254 243 243 249 249 242 236 213 230 227 231 225 220 222 226
300 363 366 367 388 406 390 383 388 392 349 310 290 294 277 270 279 278 278 291 294 275 275 285 292 302 288 305 303 165 280 277 290 289 291 292 267 248 276 268 250 244 240 246 248 248 200 245 245 239 233 234 231 233
363 358 355 367 391 400 394 367 373 380 357 314 299 309 283 283 278 280 273 281 315 280 276 267 292 280 237 107 298 295 323 295 287 290 292 293 286 254 247 275 273 256 244 243 241 243 245 245 244 244 244 244 246 248
361 344 343 342 369 378 362 352 382 361 346 344 302 299 282 280 268 283 279 226 262 298 285 308 269 262 287 231 280 292 291 308 307 296 288 290 284 277 260 256 255 273 278 265 254 252 252 253 252 251 253 255 256 257
311 335 337 335 347 355 358 364 353 360 334 332 344 278 288 273 275 275 280 238 277 295 308 293 312 297 260 258 286 261 278 293 293 295 297 258 304 287 214 269 259 257 257 205 260 266 265 265 268 272 271 269 270 269
338 341 325 340 341 338 328 347 362 360 353 328 338 301 288 275 271 277 256 115 179 270 279 285 284 292 286 294 299 294 301 292 282 295 275 273 283 285 301 302 294 239 134 251 253 256 256 258 260 260 267 244 275 298
344 349 337 324 343 323 323 326 332 339 349 358 352 335 295 293 272 269 265 264 265 262 272 272 277 272 278 277 275 273 131 275 277 274 276 281 280 282 281 178 282 283 283 283 267 137 135 293 276 288 287 288 291 287
322 319 319 325 335 329 331 337 336 347 353 350 357 374 351 293 280 281 270 272 270 270 267 262 260 263 263 262 263 264 264 263 261 262 263 262 176 265 267 268 270 271 273 211 189 314 305 268 320 262 287 286 323 320
323 307 315 313 313 321 325 327 330 331 331 342 353 351 360 296 287 274 262 266 252 256 257 258 262 259 260 254 250 251 254 249 258 254 263 267 276 283 301 294 299 294 318 312 310 306 306 305 304 302 295 296 296 293
311 306 305 306 308 320 326 321 318 321 327 332 338 341 361 367 285 281 269 257 257 255 253 253 255 256 258 260 259 262 259 265 270 280 317 311 300 298 297 295 292 288 288 286 279 277 276 273 268 271 270 272 271 270
312 309 310 313 316 324 307 324 322 321 323 324 329 337 348 363 362 285 277 270 265 264 264 263 261 258 261 259 263 284 324 305 295 289 278 273 268 261 260 258 260 251 256 258 260 260 260 260 260 261 263 263 264 265
320 322 322 316 322 328 317 313 321 319 321 324 328 330 334 338 351 361 328 296 290 289 281 340 359 369 340 302 289 276 265 261 253 255 248 249 253 255 256 256 258 256 255 258 258 258 261 261 264 271 275 277 279 280
323 323 326 328 335 345 330 339 338 330 332 338 332 322 327 353 341 335 331 328 314 299 288 280 274 267 259 250 248 242 242 253 253 254 249 246 249 252 255 255 255 258 261 268 271 266 272 281 285 287 293 300 305 307
294 292 291 293 295 296 296 293 290 288 284 280 278 277 275 273 270 268 265 261 256 249 246 246 234 250 251 247 244 244 246 246 249 253 255 254 255 257 256 260 261 267 275 279 282 288 296 316 330 334 324 322 330 402
270 268 266 265 263 263 260 259 253 249 252 245 246 246 245 247 246 252 252 253 252 251 247 244 246 247 245 244 245 248 249 249 251 250 253 258 261 261 260 264 274 276 288 308 325 326 325 323 344 389 376 368 362 354
263 253 250 249 247 248 245 251 251 254 243 248 252 248 240 237 243 244 243 243 238 236 232 242 244 243 240 243 244 246 250 251 251 251 253 258 262 266 273 287 320 331 323 324 334 390 378 370 364 358 353 403 442 433
249 241 246 251 251 246 245 235 247 251 247 248 249 248 244 244 246 244 242 243 241 238 241 229 232 234 238 245 247 248 250 250 253 255 262 264 273 313 338 336 326 326 393 382 368 361 357 364 442 449 436 428 419 409
245 238 234 231 246 250 248 245 239 248 247 243 241 239 240 241 236 235 232 241 243 239 235 237 234 239 247 246 247 247 246 251 261 273 315 327 339 334 327 328 394 370 356 359 364 483 468 456 443 431 420 409 399 391
245 240 245 245 247 247 249 249 246 241 238 238 236 234 232 233 234 243 246 247 245 237 236 237 241 243 243 239 242 249 263 271 278 299 325 337 328 321 395 376 351 361 369 479 479 469 453 442 429 417 406 395 389 382
241 243 242 246 247 244 240 237 233 233 231 230 230 236 245 253 252 250 247 248 239 244 243 237 237 237 238 247 260 261 286 279 314 328 337 323 353 391 357 352 373 387 453 431 422 432 434 428 418 407 396 387 377 378
244 238 248 247 238 229 220 230 231 233 238 237 239 239 236 247 247 242 242 246 248 249 243 241 243 256 257 263 263 283 280 315 331 340 323 363 385 349 365 368 364 442 419 401 393 383 376 371 368 366 361 351 348 346
238 245 242 242 241 233 232 240 240 243 238 238 239 242 240 240 245 245 247 244 247 246 246 253 254 257 264 266 271 283 306 326 338 323 357 383 347 369 366 371 438 416 403 391 380 374 371 367 361 355 351 350 351 352
233 235 236 238 246 242 238 236 239 237 236 234 235 236 238 244 237 241 246 246 240 248 251 253 261 265 268 269 285 288 318 331 318 349 383 355 354 368 376 435 413 392 381 379 378 379 393 401 407 444 441 436 431 421
245 243 243 242 241 237 236 237 236 234 235 235 237 243 238 236 242 247 250 248 248 251 257 265 265 264 276 272 293 292 326 321 342 382 362 348 370 356 433 411 393 379 377 409 432 428 422 414 418 426 427 424 421 420
233 241 242 240 233 236 238 235 231 231 238 241 242 234 238 251 246 249 252 253 254 262 264 264 261 284 274 296 292 322 325 336 377 370 344 371 353 434 410 394 373 382 434 433 425 420 415 409 391 402 399 400 401 403
248 243 232 238 237 233 235 236 243 242 235 233 240 247 238 241 253 262 263 263 266 264 265 265 280 274 294 293 318 326 328 374 371 342 371 354 433 410 395 372 394 433 428 423 422 400 375 378 379 379 379 379 378 377

GFSWCAN_2pvu_pres_075.txt.gz
Presure
286 316 313 478 411 350 323 309 295 282 278 270 309 329 316 341 346 356 365 372 368 360 363 355 355 345 345 326 89 314 319 318 311 306 322 323 348 381 355 285 253 247 250 231 233 230 224 220 209 208 213 225 216 210
306 310 442 375 344 324 311 297 285 278 270 279 307 285 318 315 325 330 335 338 340 330 327 332 327 329 329 332 299 319 303 308 343 320 332 351 370 358 296 272 299 260 251 242 251 227 216 208 209 224 209 219 219 211
308 433 364 338 325 314 304 290 277 274 267 322 300 281 312 317 313 313 316 316 309 306 319 314 318 318 318 321 317 300 220 311 332 322 336 341 332 340 330 286 298 265 243 249 239 241 223 222 223 215 224 221 216 228
404 357 331 323 314 308 294 276 273 271 256 304 296 301 309 302 303 313 311 321 312 320 328 256 345 345 364 375 313 315 307 320 304 349 342 330 312 336 328 319 288 271 250 236 241 243 220 221 212 214 209 202 204 211
353 327 318 311 308 297 279 280 267 256 298 295 299 293 312 316 318 310 318 342 327 320 316 314 321 313 308 311 308 303 317 314 343 331 334 322 309 319 325 277 272 288 236 234 247 234 242 225 221 219 214 212 213 201
326 314 310 302 286 284 276 266 253 269 292 286 289 284 316 312 305 300 303 332 309 306 311 314 319 329 329 326 327 328 169 341 337 327 322 313 314 298 313 263 272 281 250 245 222 251 258 248 234 228 226 218 217 218
311 306 292 285 269 280 305 311 304 299 291 289 288 291 302 304 293 304 305 308 295 313 320 327 320 332 342 342 333 330 328 330 322 319 318 311 306 309 305 276 271 282 271 244 242 232 251 265 239 231 223 219 213 201
297 289 276 301 308 303 309 346 362 368 316 287 289 290 290 293 300 298 297 315 129 313 322 315 324 340 345 339 327 313 314 316 315 306 310 309 310 311 314 300 262 285 273 248 241 237 237 240 260 234 219 220 220 221
277 302 299 309 362 372 384 375 374 371 396 332 299 291 288 291 297 295 291 309 306 317 311 304 303 315 311 115 274 307 300 299 299 298 300 305 302 306 308 156 247 269 277 255 241 236 235 234 239 255 244 232 226 233
299 307 374 361 373 415 411 397 382 378 401 328 305 287 286 290 295 286 294 310 287 291 306 321 301 301 300 308 301 306 295 289 292 289 291 289 296 291 291 280 257 253 276 268 250 244 238 231 234 236 239 243 247 243
361 362 354 382 384 380 377 371 372 390 403 320 306 285 292 293 297 276 279 292 298 273 282 288 299 301 309 306 314 165 289 290 292 290 288 292 294 292 290 285 269 246 280 273 262 254 248 244 244 244 242 239 237 236
351 343 343 360 347 348 364 371 363 364 342 310 300 286 288 291 294 264 283 295 305 311 264 256 301 290 306 293 332 296 240 293 294 283 286 280 284 288 291 291 280 264 245 277 277 264 251 245 244 245 248 250 254 255
342 345 339 343 352 352 369 355 346 346 315 304 299 291 288 287 287 266 245 289 285 282 295 263 255 287 286 272 293 278 301 292 123 293 281 287 286 289 286 286 285 278 199 145 249 274 273 263 257 249 246 245 243 243
323 340 340 338 341 354 348 338 339 336 328 302 300 281 286 291 281 265 253 271 296 293 315 299 299 258 255 273 262 257 158 278 271 279 278 299 288 284 284 289 298 275 276 274 270 261 255 253 231 138 269 276 280 282
343 333 325 330 323 333 345 342 327 334 333 313 299 283 293 283 278 270 271 275 270 291 299 299 295 293 286 285 281 283 278 275 221 274 262 150 257 275 276 277 279 279 280 281 272 127 228 230 192 282 284 285 305 306
313 314 325 326 333 331 339 349 345 329 327 332 341 299 289 289 282 273 266 266 264 265 264 268 268 265 264 263 260 260 260 263 261 264 263 261 263 262 262 267 270 272 273 273 276 276 313 284 327 299 268 287 292 292
312 315 311 312 322 325 325 331 337 347 354 359 359 337 288 288 284 258 268 268 264 264 259 255 256 256 260 259 257 260 258 260 269 261 280 294 364 337 307 270 277 288 278 284 277 281 278 277 279 279 278 277 279 279
305 308 317 312 317 315 288 323 332 340 351 348 353 370 297 288 284 272 265 263 256 254 252 246 243 247 248 253 259 265 269 283 302 314 276 273 269 263 264 262 263 263 264 263 264 264 264 263 263 263 265 266 267 266
315 316 322 311 315 317 322 326 327 329 333 341 353 363 361 295 292 257 251 250 249 252 258 265 265 265 267 274 317 353 290 265 257 255 252 248 250 250 250 251 252 251 253 259 259 261 259 260 261 263 263 264 278 284
318 319 328 321 313 317 315 320 324 331 336 335 341 346 350 292 285 274 268 267 264 265 266 270 286 347 292 260 254 250 249 248 245 243 246 247 249 249 251 250 254 260 265 268 269 269 267 269 284 288 301 306 305 313
324 337 346 322 324 322 330 330 333 332 330 332 336 342 346 353 283 276 274 287 327 381 267 257 251 246 241 245 246 239 238 240 245 246 248 248 253 256 256 261 261 262 274 278 285 295 304 317 321 354 361 353 342 339
330 329 304 301 293 289 286 284 284 284 284 283 287 288 285 299 275 266 258 254 249 243 245 246 244 239 245 244 244 246 247 246 247 250 252 251 256 259 262 272 278 290 304 334 351 354 348 341 352 393 384 376 372 366
268 266 267 264 266 265 257 260 257 256 254 253 256 254 249 248 243 251 247 246 244 243 239 233 229 233 236 238 240 242 244 248 248 249 250 258 263 274 286 305 328 346 347 341 372 394 380 369 365 379 443 484 470 459
255 256 256 255 254 247 251 245 249 245 247 246 244 245 243 243 241 239 236 237 235 238 239 231 233 238 238 239 239 240 243 244 249 252 258 271 283 297 332 342 337 332 391 380 363 364 379 376 443 461 473 462 449 437
250 238 244 243 251 249 248 248 248 249 248 246 242 238 237 235 233 240 243 247 250 238 238 238 237 244 242 238 243 250 250 253 260 264 266 280 288 328 330 332 392 388 359 369 376 369 428 439 421 409 428 442 431 420
247 251 253 252 251 252 249 242 238 239 239 237 234 239 256 255 253 244 248 245 239 242 245 246 244 240 243 240 246 251 259 257 267 266 271 290 329 332 359 395 370 350 379 371 401 443 423 409 396 390 381 376 377 393
249 252 253 254 246 239 238 237 236 238 233 242 248 244 244 243 239 239 242 245 244 239 240 242 236 239 247 248 248 261 255 266 274 279 294 330 333 360 392 362 366 375 364 452 432 409 395 384 378 375 375 372 369 363
249 249 242 236 237 229 231 232 234 243 238 240 242 240 238 236 239 241 236 236 239 240 246 245 236 240 247 253 257 256 267 272 284 298 325 332 354 388 362 362 373 356 447 421 400 388 379 379 387 403 429 437 390 380
253 247 235 232 231 233 234 238 243 242 243 240 234 233 231 234 244 238 235 238 236 234 244 248 253 257 259 258 258 271 273 281 288 314 330 342 381 367 352 373 355 441 413 400 380 381 428 436 431 426 419 419 428 435
236 242 231 233 235 245 240 234 241 242 237 235 235 235 236 237 235 231 244 246 232 241 251 257 260 260 256 260 269 269 276 293 294 323 341 371 375 350 376 356 441 416 398 378 409 441 436 431 427 421 415 408 405 404
237 241 248 245 242 242 237 237 239 238 234 231 234 237 236 235 234 246 228 230 245 254 254 263 264 262 266 270 270 275 281 295 299 336 366 379 350 373 360 395 424 398 373 427 438 420 382 381 382 145 358 382 380 377
246 240 240 240 241 241 235 236 235 233 235 240 241 228 234 236 244 243 237 240 254 260 263 262 259 269 267 272 271 280 293 292 308 354 381 353 372 364 353 427 399 375 421 440 385 389 397 399 367 361 352 349 351 353
232 232 234 242 239 232 235 236 235 232 234 229 236 235 235 240 241 237 249 256 261 262 264 269 266 266 272 277 270 286 299 296 337 379 357 367 367 352 419 408 381 428 443 387 402 400 370 356 348 351 353 345 342 345